Starlink 30389

operational
NORAD ID: 57783 Int'l Des: 2023-134 Owner: SPXS Country: US Constellation: starlink
LEOCIRCULAR

Starlink 30389について

説明を読み込み中...

リアルタイム位置

3D地球を読み込み中...

次回通過

高度履歴

Altitude vs Time

uPlot chart will show altitude changes over time

軌道要素

1 57783U 23134N 25308.85941444 .00000519 00000-0 53489-4 0 9998
2 57783 43.0023 155.7870 0000971 272.0816 87.9915 15.02543953120694
Epoch: Nov 4, 2025 • Age: 9 hours

現在のステータス

高度 558.3 km
速度 7.58 km/s
衛星直下点 8.90°N, 160.64°W
打ち上げ日 Sep 4, 2023
運用期間 2.1 years
タイプ internet

技術仕様

分類 Payload
質量 730.00 kg
乾燥質量 700.00 kg
総質量 730.00 kg
長さ 0.30 m
直径 4.10 m
スパン 29.00 m
形状 Box + pan
製造者 SPXS
バスタイプ Starlink V2M
フェーズステータス In Orbit
所有者/国 SPXS/US

大規模コンステレーション

Loading constellations...